• In Belarus
  • List of Countries
  • For 7 days
  • Water Temperature
  • Satellite Maps
  • Weather Map
  • Weather Widgets
  • user-avatar
    Login

    Hourly Weather Kiselnoe

    Today, 19 April, Thursday

    Time Temperature Precipitation Wind Pressure Humidity
    00:00 +6°C° 0.1 mm 5 mps 735 mmHg 84%
    01:00 +5°C° 0.1 mm 5 mps 734 mmHg 86%
    02:00 +5°C° 0 mm 5 mps 733 mmHg 87%
    03:00 +4°C° 0.6 mm 6 mps 733 mmHg 88%
    04:00 +4°C° 0.6 mm 6 mps 732 mmHg 89%
    05:00 +4°C° 0.6 mm 6 mps 732 mmHg 89%
    06:00 +4°C° 0.3 mm 6 mps 731 mmHg 88%
    07:00 +4°C° 0.3 mm 6 mps 731 mmHg 87%
    08:00 +5°C° 0 mm 7 mps 731 mmHg 86%
    09:00 +5°C° 0.4 mm 7 mps 731 mmHg 86%
    10:00 +6°C° 0.4 mm 7 mps 730 mmHg 85%
    11:00 +6°C° 0.4 mm 8 mps 730 mmHg 84%
    12:00 +7°C° 0.5 mm 8 mps 730 mmHg 79%
    13:00 +7°C° 0.5 mm 8 mps 731 mmHg 74%
    14:00 +9°C° 0.5 mm 8 mps 731 mmHg 70%
    15:00 +9°C° 0.3 mm 8 mps 731 mmHg 70%
    16:00 +9°C° 0.3 mm 7 mps 731 mmHg 70%
    17:00 +9°C° 0.3 mm 7 mps 731 mmHg 70%
    18:00 +8°C° 0.1 mm 7 mps 732 mmHg 73%
    19:00 +8°C° 0.1 mm 7 mps 732 mmHg 76%
    20:00 +6°C° 0.1 mm 7 mps 733 mmHg 79%
    21:00 +6°C° 0.1 mm 7 mps 733 mmHg 79%
    22:00 +6°C° 0.1 mm 7 mps 733 mmHg 80%
    23:00 +6°C° 0.1 mm 8 mps 734 mmHg 80%

    Tomorrow, 20 April, Friday

    Time Temperature Precipitation Wind Pressure Humidity
    00:00 +6°C° 0.1 mm 8 mps 734 mmHg 80%
    01:00 +5°C° 0.1 mm 8 mps 735 mmHg 80%
    02:00 +5°C° 0.1 mm 8 mps 735 mmHg 80%
    03:00 +4°C° 0 mm 8 mps 735 mmHg 81%
    04:00 +4°C° 0 mm 8 mps 736 mmHg 82%
    05:00 +2°C° 0 mm 8 mps 736 mmHg 83%
    06:00 +4°C° 0 mm 8 mps 737 mmHg 80%
    07:00 +4°C° 0 mm 8 mps 737 mmHg 78%
    08:00 +4°C° 0 mm 8 mps 738 mmHg 75%
    09:00 +5°C° 0 mm 8 mps 739 mmHg 72%
    10:00 +5°C° 0 mm 8 mps 739 mmHg 70%
    11:00 +6°C° 0 mm 8 mps 739 mmHg 68%
    12:00 +8°C° 0 mm 7 mps 740 mmHg 64%
    13:00 +9°C° 0 mm 7 mps 740 mmHg 60%
    14:00 +10°C° 0 mm 7 mps 740 mmHg 55%
    15:00 +10°C° 0 mm 6 mps 740 mmHg 56%
    16:00 +10°C° 0 mm 5 mps 740 mmHg 57%
    17:00 +10°C° 0 mm 5 mps 741 mmHg 57%
    18:00 +8°C° 0 mm 4 mps 741 mmHg 63%
    19:00 +8°C° 0 mm 3 mps 741 mmHg 69%
    20:00 +7°C° 0 mm 2 mps 741 mmHg 74%
    21:00 +6°C° 0 mm 2 mps 741 mmHg 77%
    22:00 +6°C° 0 mm 2 mps 741 mmHg 79%
    23:00 +6°C° 0 mm 1 mps 741 mmHg 81%

    Day after tomorrow, 21 April, Saturday

    Time Temperature Precipitation Wind Pressure Humidity
    00:00 +6°C° 0 mm 1 mps 741 mmHg 83%
    01:00 +6°C° 0 mm 1 mps 741 mmHg 84%
    02:00 +4°C° 0 mm 2 mps 740 mmHg 85%
    03:00 +4°C° 0 mm 2 mps 740 mmHg 87%
    04:00 +3°C° 0 mm 3 mps 739 mmHg 88%
    05:00 +3°C° 0 mm 3 mps 739 mmHg 90%
    06:00 +5°C° 0 mm 4 mps 738 mmHg 84%
    07:00 +5°C° 0 mm 6 mps 737 mmHg 78%
    08:00 +6°C° 0 mm 7 mps 736 mmHg 73%
    09:00 +9°C° 0 mm 8 mps 735 mmHg 68%
    10:00 +11°C° 0 mm 8 mps 734 mmHg 63%
    11:00 +13°C° 0 mm 9 mps 733 mmHg 58%
    12:00 +14°C° 0 mm 10 mps 732 mmHg 56%
    13:00 +16°C° 0 mm 10 mps 731 mmHg 54%
    14:00 +17°C° 0 mm 10 mps 730 mmHg 52%
    15:00 +17°C° 0.2 mm 10 mps 729 mmHg 56%
    16:00 +16°C° 0.2 mm 9 mps 728 mmHg 59%
    17:00 +15°C° 0.2 mm 8 mps 727 mmHg 63%
    18:00 +13°C° 0.8 mm 8 mps 727 mmHg 67%
    19:00 +12°C° 0.8 mm 8 mps 727 mmHg 71%
    20:00 +11°C° 0.8 mm 7 mps 727 mmHg 75%
    21:00 +9°C° 0 mm 7 mps 728 mmHg 74%
    22:00 +7°C° 0 mm 6 mps 728 mmHg 73%
    23:00 +5°C° 0 mm 6 mps 728 mmHg 72%

    22 April, Sunday

    Time Temperature Precipitation Wind Pressure Humidity
    00:00 +5°C° 0 mm 6 mps 728 mmHg 74%
    01:00 +4°C° 0 mm 7 mps 728 mmHg 75%
    02:00 +4°C° 0 mm 7 mps 729 mmHg 76%
    03:00 +3°C° 0 mm 7 mps 729 mmHg 77%
    04:00 +3°C° 0 mm 7 mps 729 mmHg 78%
    05:00 +1°C° 0 mm 8 mps 729 mmHg 78%
    06:00 +2°C° 0 mm 8 mps 730 mmHg 74%
    07:00 +2°C° 0 mm 8 mps 730 mmHg 70%
    08:00 +3°C° 0 mm 9 mps 731 mmHg 66%
    09:00 +3°C° 0 mm 9 mps 731 mmHg 63%
    10:00 +5°C° 0 mm 8 mps 731 mmHg 59%
    11:00 +6°C° 0 mm 8 mps 731 mmHg 56%
    12:00 +6°C° 0 mm 8 mps 732 mmHg 53%
    13:00 +7°C° 0 mm 8 mps 732 mmHg 50%
    14:00 +9°C° 0 mm 8 mps 732 mmHg 47%
    15:00 +9°C° 0 mm 7 mps 732 mmHg 47%
    16:00 +8°C° 0 mm 7 mps 733 mmHg 48%
    17:00 +8°C° 0 mm 6 mps 733 mmHg 48%
    18:00 +7°C° 0 mm 5 mps 733 mmHg 54%
    19:00 +5°C° 0 mm 3 mps 734 mmHg 59%
    20:00 +5°C° 0 mm 2 mps 734 mmHg 65%
    21:00 +5°C° 0 mm 2 mps 734 mmHg 66%
    22:00 +4°C° 0 mm 2 mps 734 mmHg 68%
    23:00 +4°C° 0 mm 2 mps 735 mmHg 69%

    23 April, Monday

    Time Temperature Precipitation Wind Pressure Humidity
    00:00 +4°C° 0.1 mm 2 mps 735 mmHg 69%
    01:00 +2°C° 0.1 mm 3 mps 735 mmHg 69%
    02:00 +2°C° 0.1 mm 3 mps 735 mmHg 69%
    03:00 +1°C° 0 mm 3 mps 736 mmHg 69%
    04:00 +1°C° 0 mm 3 mps 736 mmHg 69%
    05:00 0°C° 0 mm 3 mps 736 mmHg 69%
    06:00 +1°C° 0 mm 3 mps 737 mmHg 63%
    07:00 +1°C° 0 mm 4 mps 737 mmHg 57%
    08:00 +1°C° 0 mm 4 mps 737 mmHg 52%
    09:00 +3°C° 0 mm 4 mps 738 mmHg 48%
    10:00 +4°C° 0 mm 4 mps 738 mmHg 44%
    11:00 +5°C° 0 mm 4 mps 738 mmHg 40%
    12:00 +6°C° 0 mm 4 mps 738 mmHg 39%
    13:00 +6°C° 0 mm 4 mps 738 mmHg 38%
    14:00 +7°C° 0 mm 4 mps 738 mmHg 37%
    15:00 +6°C° 0 mm 4 mps 738 mmHg 38%
    16:00 +7°C° 0 mm 3 mps 738 mmHg 39%
    17:00 +7°C° 0 mm 3 mps 738 mmHg 40%
    18:00 +6°C° 0 mm 2 mps 739 mmHg 44%
    19:00 +5°C° 0 mm 2 mps 739 mmHg 48%
    20:00 +5°C° 0 mm 1 mps 739 mmHg 51%
    21:00 +5°C° 0 mm 1 mps 739 mmHg 53%
    22:00 +4°C° 0 mm 1 mps 739 mmHg 54%
    23:00 +4°C° 0 mm 1 mps 739 mmHg 55%

    24 April, Tuesday

    Time Temperature Precipitation Wind Pressure Humidity
    00:00 +3°C° 0 mm 1 mps 739 mmHg 57%
    01:00 +3°C° 0 mm 1 mps 739 mmHg 58%
    02:00 +2°C° 0 mm 2 mps 739 mmHg 60%
    03:00 +2°C° 0 mm 2 mps 739 mmHg 62%
    04:00 +1°C° 0 mm 2 mps 739 mmHg 63%
    05:00 +1°C° 0 mm 2 mps 739 mmHg 65%
    06:00 +3°C° 0 mm 2 mps 739 mmHg 60%
    07:00 +4°C° 0 mm 3 mps 739 mmHg 55%
    08:00 +7°C° 0 mm 3 mps 739 mmHg 51%
    09:00 +7°C° 0 mm 4 mps 738 mmHg 50%
    10:00 +8°C° 0 mm 4 mps 738 mmHg 49%
    11:00 +9°C° 0 mm 5 mps 737 mmHg 47%
    12:00 +9°C° 0.2 mm 5 mps 737 mmHg 52%
    13:00 +9°C° 0.2 mm 5 mps 736 mmHg 57%
    14:00 +9°C° 0.2 mm 5 mps 736 mmHg 62%
    15:00 +8°C° 0.5 mm 5 mps 735 mmHg 68%
    16:00 +8°C° 0.5 mm 5 mps 734 mmHg 74%
    17:00 +7°C° 0.5 mm 5 mps 734 mmHg 79%
    18:00 +7°C° 0.4 mm 5 mps 733 mmHg 82%
    19:00 +7°C° 0.4 mm 5 mps 733 mmHg 85%
    20:00 +6°C° 0.4 mm 5 mps 733 mmHg 88%
    21:00 +6°C° 0.4 mm 5 mps 732 mmHg 90%
    22:00 +6°C° 0.4 mm 4 mps 732 mmHg 91%
    23:00 +6°C° 0.4 mm 4 mps 732 mmHg 93%
    Show more